Theta_e
342 343 345 344 346 347 347 347 348 348 348 348 349 348 349 350 351 349 347 346 345 347 347 348 350 350 349 348 347 347 348 347 348 348 344 340 340 341 339 338 336 334 334 339 342 340 339 339 340 341 343 343 345 345 343 343 345 347 346 346 346 346 345 345 344 341 339 338 338 340 341 340 344 346 344 342 342 344 343 342 343 342 341 343 346
343 344 345 345 347 348 348 348 349 349 348 348 348 347 349 351 351 348 345 344 343 344 344 347 349 348 348 349 348 348 348 348 348 350 347 342 342 342 340 340 339 337 338 343 344 342 340 339 340 342 343 342 342 342 342 343 344 345 346 346 346 345 344 342 341 340 338 339 339 340 341 341 343 345 344 342 342 344 344 342 343 342 339 341 344
342 345 344 345 347 348 349 349 349 350 349 349 349 347 348 350 350 347 344 342 343 343 344 348 348 347 348 349 349 348 349 349 349 350 349 345 344 343 341 341 342 342 346 348 346 343 341 341 342 343 343 342 342 341 343 345 346 346 346 345 344 344 343 342 342 342 341 341 341 341 342 343 343 343 342 341 341 343 343 342 342 342 340 341 342
343 344 345 346 347 349 350 350 350 351 350 351 350 348 348 349 348 346 343 342 344 344 346 348 348 348 349 349 348 349 349 349 349 351 350 345 344 344 342 342 342 343 346 347 344 342 342 342 342 342 343 342 341 341 343 345 346 346 345 344 345 345 344 345 346 345 343 342 342 343 343 344 344 344 342 342 342 342 342 343 341 341 340 339 339
343 344 345 346 347 348 350 351 351 351 352 352 351 349 348 347 347 344 343 345 346 348 348 348 349 349 350 349 348 349 350 349 350 352 349 344 343 343 342 342 342 342 344 344 342 341 341 342 342 341 341 342 342 342 343 345 346 345 345 345 345 346 346 347 348 346 343 343 345 345 344 343 344 344 343 343 342 342 342 342 341 340 340 339 338
343 344 346 347 348 348 349 350 351 352 353 353 352 350 347 346 347 346 347 348 349 350 349 348 349 349 350 350 348 349 350 350 351 351 348 344 343 342 341 342 342 342 343 343 342 342 342 341 340 341 341 342 344 346 344 344 346 346 346 346 345 346 347 347 347 345 344 345 347 346 345 346 345 342 342 342 341 342 342 342 341 341 340 340 340
344 344 346 347 348 349 349 350 351 352 353 353 353 351 347 346 348 347 349 348 348 350 348 347 349 350 350 349 348 349 350 350 351 349 347 344 343 341 342 343 343 342 343 343 342 342 342 341 339 340 341 343 346 348 345 343 345 346 347 347 345 345 346 347 347 346 346 347 347 347 346 347 346 343 341 341 340 341 341 341 341 341 341 342 341
345 345 346 348 349 350 351 351 352 353 354 354 354 353 348 346 347 348 348 346 346 347 346 346 348 348 350 349 347 348 349 350 349 349 348 346 344 343 342 343 344 343 344 344 342 342 342 341 340 340 342 344 345 347 346 344 344 346 346 346 345 345 346 346 346 347 347 346 346 346 346 346 347 345 341 340 341 342 342 341 341 341 341 341 342
345 345 346 348 349 350 350 352 353 354 354 354 355 354 349 344 347 348 348 345 343 344 345 345 346 346 349 349 348 347 348 349 348 348 349 347 346 345 343 343 345 344 345 345 343 342 343 343 343 342 342 344 345 346 346 345 344 344 345 346 346 345 345 346 346 347 347 346 345 345 345 344 346 345 343 341 342 343 342 341 341 340 341 342 342
345 346 347 348 349 351 351 353 354 353 354 354 354 354 349 344 346 347 348 346 343 343 343 342 343 345 348 350 348 346 348 348 348 349 348 348 349 347 344 344 345 345 345 344 342 342 342 343 344 344 343 344 346 347 346 344 343 343 343 346 346 345 344 346 347 347 347 347 347 348 346 346 346 346 346 344 344 344 342 341 341 341 341 342 343
346 346 347 348 349 350 351 353 352 352 354 354 354 354 349 344 345 346 346 346 344 344 343 341 342 343 345 348 348 348 348 347 348 349 348 349 349 348 345 345 346 345 344 343 343 342 341 343 344 344 344 345 347 347 346 344 344 343 342 344 345 344 344 346 347 346 346 346 347 347 347 348 348 347 347 346 345 344 344 341 341 341 342 342 342
346 346 347 348 349 349 350 351 352 352 354 353 354 355 350 344 344 345 345 345 345 344 344 343 343 342 342 347 350 350 349 347 347 348 349 349 348 348 347 347 346 345 343 343 343 342 342 344 344 344 345 345 346 347 346 345 345 344 342 343 343 343 343 344 344 344 346 348 347 347 348 347 347 346 346 346 345 344 344 343 342 341 342 343 342
347 347 347 348 348 349 349 350 351 352 353 353 353 354 351 345 343 345 345 345 344 344 345 346 345 343 343 346 349 350 349 347 345 346 348 348 347 347 347 346 346 345 343 344 344 343 344 345 344 345 345 344 344 348 349 348 347 346 344 343 343 342 342 342 342 343 346 348 347 347 347 346 346 346 345 346 346 344 345 346 345 343 343 344 343
348 348 347 347 348 349 348 349 350 351 351 352 352 353 352 346 343 344 345 345 345 344 345 346 346 345 346 347 348 348 347 345 345 345 346 346 346 344 344 345 347 346 344 345 345 344 343 345 345 345 345 344 344 348 351 351 351 348 346 344 343 343 343 342 342 345 347 348 347 347 348 347 347 348 346 345 347 345 346 346 346 346 345 345 346
347 347 346 347 347 347 348 348 349 350 350 352 353 353 351 347 344 344 345 346 346 344 344 346 346 346 347 347 347 348 347 347 347 346 344 344 345 344 344 344 345 346 346 346 346 347 346 345 346 346 344 344 344 346 347 350 352 349 344 344 346 343 342 342 342 345 348 348 348 347 348 348 347 348 348 348 349 348 347 346 347 346 346 345 345
346 347 346 346 346 347 347 347 349 349 350 351 352 353 352 348 346 345 346 346 345 344 345 346 346 346 347 347 347 347 347 347 348 347 345 343 345 345 343 343 344 345 347 348 348 350 349 346 345 345 343 342 342 343 343 345 348 347 344 346 348 345 342 342 341 343 346 348 349 347 346 347 347 348 348 349 349 350 349 349 348 347 347 347 345
346 345 345 345 345 347 347 347 348 350 350 351 352 352 351 349 347 346 347 347 346 345 345 346 346 346 346 346 346 346 347 347 347 347 346 345 346 347 346 347 347 345 348 351 351 351 351 348 345 342 341 341 340 339 340 340 342 343 343 345 347 346 343 342 341 343 346 348 350 350 347 347 346 346 347 347 347 348 348 349 349 348 347 349 348
345 345 344 345 345 346 347 347 347 349 349 351 351 351 351 351 348 345 346 347 346 345 345 346 347 347 347 346 346 346 346 346 346 346 347 346 348 351 350 351 352 349 349 351 351 352 351 349 346 341 339 341 341 339 339 339 339 340 341 344 345 346 346 344 342 343 347 349 351 352 351 349 347 347 347 348 347 347 347 345 347 349 349 350 350
345 345 344 345 345 346 347 348 347 348 349 351 351 350 351 352 351 346 344 346 347 345 345 346 347 347 348 347 346 347 347 346 346 346 348 348 349 351 350 352 354 353 351 352 351 351 350 349 347 346 346 343 340 340 340 339 340 340 341 342 344 344 344 344 343 343 347 351 351 352 352 351 349 349 348 348 348 348 349 345 343 346 347 347 347
344 344 345 345 345 346 346 348 348 348 349 350 350 351 350 351 352 349 343 344 346 346 345 345 346 346 347 347 347 347 346 347 347 347 349 350 350 351 350 352 354 353 353 353 353 350 347 345 345 349 351 347 341 340 340 338 340 340 340 344 347 345 345 345 342 342 346 352 353 353 352 351 349 348 347 347 348 348 348 347 346 345 345 346 346
344 343 344 345 345 345 346 347 348 348 350 350 350 350 351 350 352 351 346 342 345 346 345 345 345 346 346 346 347 348 348 349 351 350 350 351 351 352 352 353 353 353 353 353 353 351 346 343 343 345 347 346 343 341 340 339 340 339 339 343 348 348 348 347 343 342 346 352 354 354 353 350 346 344 343 343 345 346 348 349 348 347 347 348 349
345 343 344 345 345 344 346 347 348 348 349 351 351 351 352 352 352 353 351 344 341 345 346 345 345 346 345 345 345 347 350 353 354 353 352 352 352 352 354 355 354 353 354 352 351 351 349 345 343 341 342 347 348 346 344 343 342 340 339 341 345 349 349 347 345 344 345 348 351 352 351 348 345 343 345 345 345 346 350 350 349 349 350 350 350
346 344 344 346 345 344 345 346 348 348 349 350 350 351 351 352 353 354 355 350 344 345 347 345 345 345 345 345 345 346 349 353 355 354 353 354 354 353 353 354 354 354 353 353 352 351 352 351 347 345 347 351 353 351 350 350 347 344 342 341 343 348 349 347 346 345 344 344 346 349 348 347 347 348 352 353 351 350 350 350 350 351 351 349 350
347 345 345 346 345 345 345 346 347 348 349 350 349 350 350 352 353 353 354 353 350 351 350 347 346 346 347 348 347 345 347 352 356 355 354 355 355 355 354 353 354 354 353 354 353 352 353 354 351 350 350 351 353 353 352 352 351 349 347 345 346 350 350 348 346 345 345 344 345 347 349 351 352 352 354 354 353 352 351 350 350 350 350 349 349
346 345 347 346 345 346 344 344 347 348 348 349 348 350 350 350 352 351 351 353 352 352 352 349 347 348 351 352 348 346 347 349 354 357 355 355 355 355 354 353 354 354 353 354 355 354 353 354 352 351 350 350 351 352 352 351 350 349 348 349 351 351 350 349 349 348 348 348 348 349 351 354 354 353 352 353 353 352 353 352 352 353 352 352 353
349 346 347 347 345 346 344 344 346 347 348 348 348 349 349 349 350 349 349 349 350 352 351 349 347 346 349 350 348 349 351 350 351 355 355 355 355 355 354 353 353 354 353 353 353 354 354 354 353 352 350 349 348 349 349 348 348 349 349 350 351 350 349 349 349 349 349 350 352 352 352 353 354 352 350 351 352 353 352 352 352 352 353 353 353
351 350 349 347 345 346 345 344 346 346 348 348 347 347 347 347 348 349 348 347 348 350 349 349 348 346 346 347 348 349 352 353 352 353 355 355 355 355 353 352 353 354 354 354 353 353 354 354 354 352 349 347 347 346 346 347 348 349 350 351 351 349 349 349 349 349 350 352 354 355 355 354 354 354 352 352 353 353 353 353 353 353 353 353 353
349 351 352 349 346 346 345 345 345 346 347 346 346 346 346 345 346 347 348 347 347 349 348 347 348 347 346 348 350 349 351 352 352 352 353 353 353 353 353 352 353 353 352 353 353 353 353 354 354 352 350 349 348 348 346 346 347 349 350 351 351 351 351 352 351 351 352 353 354 354 354 353 352 352 353 353 353 353 353 354 353 352 351 351 350
347 351 353 351 348 348 347 347 346 344 346 347 345 345 346 345 346 346 347 346 346 348 348 347 347 348 347 348 350 351 349 350 351 350 350 351 350 350 349 350 350 349 349 351 353 353 353 353 353 353 352 351 350 351 350 348 348 349 349 349 349 349 350 350 352 352 351 351 353 353 353 351 350 351 351 352 352 352 351 352 352 351 350 349 345
349 350 352 352 351 349 347 347 350 348 346 347 347 346 346 345 346 346 346 347 347 347 347 347 347 347 347 348 349 350 350 349 349 349 348 348 348 348 346 346 346 346 346 348 350 352 352 353 353 352 352 352 352 352 352 351 350 349 347 347 347 346 347 348 349 350 349 349 351 353 352 350 349 348 349 350 351 350 350 351 352 352 352 348 344
350 351 351 352 352 350 346 347 351 352 350 347 348 349 350 349 347 347 347 347 347 347 347 348 349 348 348 349 349 349 350 349 348 349 348 346 345 346 346 347 346 344 345 345 347 348 349 350 349 350 351 352 352 351 350 351 351 350 349 349 348 348 347 347 346 347 348 348 350 351 351 350 349 348 348 349 349 350 350 351 352 351 350 348 346
351 352 352 352 351 351 350 347 348 353 355 351 348 349 351 352 350 349 348 347 348 350 350 351 350 350 349 349 350 350 349 349 349 349 349 347 345 344 346 348 348 346 344 345 347 348 348 348 348 350 351 351 351 351 351 351 351 351 351 350 350 350 350 349 348 348 348 348 348 349 349 350 349 348 348 347 347 349 348 348 349 348 348 348 349
349 350 352 353 352 352 353 352 349 352 356 355 351 348 348 349 351 354 356 354 351 349 349 349 348 348 349 350 350 349 348 348 349 348 348 347 346 344 344 347 348 347 346 347 347 348 348 348 349 350 350 350 350 351 351 350 350 351 352 351 350 350 351 352 351 349 348 348 348 348 348 348 349 349 348 347 347 347 346 347 348 348 348 348 349
346 348 349 350 349 349 352 353 354 354 355 355 354 352 349 347 350 356 359 358 355 351 349 349 348 346 347 348 349 348 348 349 349 348 348 348 347 345 344 344 346 348 348 347 347 346 347 347 348 348 348 348 349 350 350 349 350 351 351 351 349 349 351 351 349 346 345 346 346 346 346 346 346 347 348 348 348 348 349 349 350 351 350 350 350
346 347 348 348 347 347 349 351 353 354 354 354 353 353 352 351 351 354 355 356 355 354 354 354 351 349 347 347 348 348 348 349 349 347 346 347 347 346 345 344 344 346 347 347 346 345 346 346 347 347 348 348 348 348 347 347 347 348 349 349 348 349 350 349 347 345 344 345 344 344 344 343 342 344 346 348 349 349 350 350 350 351 351 351 352
346 347 347 347 346 346 347 348 350 352 352 352 351 351 351 352 353 354 355 354 353 353 354 354 353 352 350 349 350 350 349 350 349 347 345 344 346 347 347 345 344 344 346 347 346 346 346 345 346 347 349 349 348 347 347 346 346 345 346 347 347 347 348 348 347 345 345 345 345 344 344 343 344 345 346 348 350 350 349 349 349 350 350 352 352
345 345 345 345 344 344 345 346 347 349 350 350 351 351 351 352 352 353 353 354 353 354 354 352 350 351 351 350 351 350 349 350 351 348 344 343 346 348 347 345 343 344 346 347 347 347 347 345 344 346 348 350 349 349 347 347 347 346 346 346 346 347 347 347 345 342 342 343 345 344 345 345 345 346 347 349 349 348 347 346 348 349 349 350 350
344 344 344 344 344 344 344 345 346 347 346 346 347 348 349 350 350 352 352 353 353 353 354 352 351 351 352 351 350 348 347 349 352 351 347 346 347 347 346 344 343 343 344 346 347 347 346 344 342 344 348 349 349 349 348 346 346 347 348 347 347 347 347 346 344 342 341 343 345 346 346 347 347 347 348 349 348 347 346 347 347 347 347 348 348
343 344 343 343 343 343 343 344 345 345 345 346 345 346 346 347 348 349 350 350 350 351 352 352 351 351 352 351 350 349 348 350 353 353 352 352 351 350 348 346 344 343 343 344 346 346 345 343 341 344 347 347 346 347 347 346 345 345 347 348 348 348 346 345 344 344 344 345 347 348 347 347 348 348 348 348 348 348 347 347 347 347 347 347 347
341 342 342 341 342 342 343 343 343 344 345 344 344 345 345 346 346 347 347 347 348 348 349 349 350 350 351 351 351 349 348 350 352 353 353 354 353 353 350 348 346 347 347 347 348 347 347 346 346 348 349 349 348 348 348 347 345 344 346 348 348 347 346 346 346 348 348 348 348 349 349 348 349 349 348 349 348 347 346 345 343 343 343 342 340
339 339 339 339 339 340 341 340 341 342 343 343 343 344 345 345 345 345 345 345 345 346 347 348 348 348 349 351 351 351 349 349 349 350 351 352 352 351 350 349 349 349 348 348 349 350 349 349 349 350 351 350 350 350 349 348 346 346 347 347 346 346 348 348 350 350 350 350 350 350 349 349 349 348 347 346 344 342 341 339 335 332 332 332 330
337 337 337 337 337 338 338 338 338 339 341 342 343 343 343 343 343 343 344 344 344 345 345 346 347 347 347 348 349 350 350 350 349 349 350 351 350 350 350 349 349 348 347 347 348 349 348 347 347 348 349 349 349 348 348 347 348 348 348 346 345 346 347 349 350 350 350 350 349 348 348 348 347 345 341 338 334 333 332 329 326 324 324 324 324
335 335 335 336 336 336 336 337 337 338 340 340 341 341 341 341 341 341 342 343 343 344 344 345 345 345 345 346 347 348 348 348 349 350 349 349 348 348 349 349 349 348 348 347 348 347 346 346 346 346 346 345 345 345 345 346 346 347 347 346 346 346 347 348 349 349 349 349 348 347 346 343 339 334 329 325 323 322 321 320 321 322 324 324 325
333 334 334 334 334 334 335 336 337 337 337 336 337 337 337 338 338 338 338 339 341 342 343 343 343 343 343 343 344 345 345 344 345 345 345 344 345 344 345 346 346 347 347 346 346 345 345 345 344 342 342 341 339 339 341 341 341 343 345 345 345 346 347 347 347 347 347 347 345 344 339 332 325 321 318 316 316 316 315 317 320 324 326 326 325
332 332 332 332 332 332 332 334 335 334 333 332 332 332 331 332 333 332 333 334 335 337 339 339 338 339 339 338 338 339 339 339 339 337 337 339 341 342 342 343 343 344 345 344 343 343 342 342 340 338 338 336 333 333 335 336 336 337 339 341 343 343 342 341 340 340 339 337 335 333 328 321 316 314 314 314 315 315 315 318 321 325 328 326 323
331 331 330 330 330 329 330 331 332 333 332 332 331 330 329 329 329 330 331 332 331 331 332 332 333 334 334 335 335 335 335 335 334 332 331 332 333 334 335 335 336 337 338 339 339 338 337 337 335 332 331 330 328 328 328 330 331 332 333 336 338 336 333 331 329 328 327 326 323 320 317 315 314 316 317 319 319 319 321 322 321 322 326 325 322
330 330 329 329 329 328 329 329 329 330 331 330 330 330 330 330 329 330 331 330 328 327 327 327 328 328 329 330 331 332 333 333 333 331 330 329 329 330 329 329 329 329 329 329 328 328 327 327 327 326 324 324 323 323 322 323 324 324 325 326 326 325 322 321 320 319 318 317 315 313 313 316 319 322 323 323 323 323 324 325 321 320 324 325 323
329 329 328 327 326 326 327 327 327 327 328 328 328 329 330 330 330 330 330 329 328 327 328 329 328 327 326 326 326 327 329 329 329 331 331 331 331 331 331 331 331 330 328 327 326 326 325 324 322 322 322 322 322 321 321 320 319 318 317 317 317 315 314 314 313 313 312 312 312 313 316 320 323 323 324 324 324 323 323 323 322 321 323 324 323
329 328 327 327 326 325 325 326 327 326 326 327 327 328 330 329 329 330 330 329 328 328 328 329 329 328 328 328 327 326 325 324 324 326 327 329 331 330 330 332 333 332 331 330 329 328 328 327 324 323 323 323 322 319 316 316 315 314 314 313 313 312 312 311 311 310 312 315 317 317 320 323 323 323 323 324 324 323 322 322 323 321 321 322 322
329 329 328 327 327 325 324 325 326 326 326 326 325 327 329 328 327 328 328 328 327 327 327 327 327 327 328 329 328 327 325 324 322 321 321 323 323 322 324 328 329 329 329 330 329 329 329 328 327 326 326 326 324 320 317 316 315 312 312 312 312 311 311 310 310 312 316 321 322 322 322 324 323 323 323 322 322 323 322 321 321 320 319 319 318
329 328 328 327 327 325 323 323 325 326 325 325 325 325 327 328 327 327 327 327 327 327 326 326 326 326 327 327 327 326 325 324 323 322 321 321 320 319 321 324 325 326 327 328 328 328 328 328 328 327 327 327 326 324 323 322 318 314 311 311 310 310 310 310 313 317 321 323 323 323 323 322 321 322 322 321 320 320 319 318 318 317 316 316 314
Wind_Speed
22 22 23 22 23 22 21 20 21 22 23 22 19 18 21 24 22 20 21 22 23 23 23 24 23 20 21 21 19 17 16 15 13 10 11 13 13 13 13 12 13 14 14 12 11 10 10 9 9 9 9 9 10 10 11 13 13 13 13 12 11 9 8 7 8 9 10 8 5 7 9 10 12 8 7 6 4 3 3 6 7 5 4 4 4
23 23 25 23 21 20 22 22 22 24 23 21 19 18 20 23 21 18 20 22 23 22 23 23 22 22 24 22 21 19 16 16 17 14 11 13 14 15 16 14 13 13 13 12 10 9 9 9 9 9 9 9 9 9 11 12 12 12 12 11 10 9 8 10 12 11 10 8 6 8 9 11 12 9 9 9 6 5 3 4 3 2 3 3 2
23 25 25 23 22 22 23 23 22 22 22 20 18 18 19 21 20 18 20 22 22 21 22 22 20 22 22 22 23 21 17 16 17 14 11 13 14 15 17 16 15 13 13 12 12 12 12 11 11 10 9 9 10 11 11 11 12 13 12 11 9 9 10 10 11 9 9 9 7 7 8 10 10 10 13 12 10 8 5 5 3 3 4 3 2
25 25 25 25 24 23 24 24 23 22 21 19 18 19 21 21 20 19 20 21 21 21 20 20 19 19 18 19 21 21 18 17 15 13 12 13 14 14 16 17 16 15 15 14 14 14 14 12 11 11 10 11 12 12 12 12 13 13 12 11 8 8 10 10 7 6 7 10 9 5 5 7 6 9 14 14 13 12 9 6 4 5 4 4 5
26 26 25 26 26 24 25 25 25 23 22 20 18 20 21 21 20 19 20 21 21 20 19 20 19 18 17 17 19 18 17 17 16 14 13 13 15 15 15 16 15 15 15 14 13 14 14 13 13 12 12 13 13 12 12 12 13 13 12 11 10 9 11 10 8 7 9 9 5 4 5 5 3 6 11 10 11 15 14 8 3 4 5 5 6
26 26 26 26 26 24 23 24 25 24 23 22 20 20 21 22 21 20 20 20 21 21 21 22 21 20 20 20 20 19 18 19 18 16 13 13 15 15 15 15 14 14 14 13 12 12 12 13 14 14 14 14 13 12 12 13 13 13 11 11 11 11 11 11 9 9 10 7 5 5 5 3 1 3 8 9 7 13 17 11 4 1 4 5 5
27 27 28 27 26 25 23 23 24 25 24 22 21 20 20 22 22 22 21 20 22 23 23 25 24 23 23 22 21 20 19 19 18 15 12 12 14 15 15 15 14 13 13 12 11 11 11 13 14 15 15 14 12 12 12 13 13 12 11 12 11 11 12 11 9 9 10 7 6 7 6 5 5 4 7 9 9 12 17 14 6 3 2 3 3
27 28 29 28 27 26 24 22 24 25 24 22 22 21 21 22 22 22 21 20 22 22 22 24 25 25 25 22 21 21 20 18 16 15 14 13 14 14 14 15 14 13 12 12 11 11 12 12 14 14 14 12 12 12 11 12 12 11 12 12 11 11 11 10 8 8 9 7 6 7 6 6 6 6 6 6 8 10 12 15 9 2 1 1 1
27 27 29 29 28 26 24 23 23 25 24 24 24 22 21 22 22 21 21 20 21 19 20 22 23 24 24 21 20 21 20 18 16 15 15 14 13 13 14 14 14 13 12 12 11 11 11 11 12 13 13 12 12 11 10 10 10 11 13 12 10 11 12 11 9 7 8 8 7 6 6 6 6 6 5 4 4 6 9 15 12 3 2 5 2
27 26 28 30 28 26 25 24 24 24 23 25 25 22 20 23 23 22 21 20 20 18 18 20 20 22 22 20 19 20 19 19 17 16 15 14 13 14 15 15 14 13 12 12 11 11 11 11 12 12 12 12 11 10 9 9 9 10 11 11 11 11 12 12 9 8 9 9 9 8 7 6 5 5 3 2 2 4 8 10 9 5 4 7 4
27 26 28 29 28 26 26 25 24 24 23 25 25 22 21 23 23 23 22 21 21 19 19 19 19 21 21 19 19 18 18 19 18 17 16 15 15 16 17 15 13 12 12 11 11 11 11 11 11 10 10 11 10 9 9 9 9 9 10 10 10 11 12 10 8 9 11 11 10 9 8 6 4 4 2 2 2 2 4 6 6 4 2 4 6
26 26 28 29 28 27 26 26 25 25 26 27 26 23 21 23 23 23 22 21 21 21 20 19 19 20 19 20 19 17 17 19 18 18 17 15 15 16 16 15 13 13 13 12 11 12 11 11 11 10 10 10 10 9 9 8 8 9 9 9 8 9 9 8 8 11 13 11 9 7 6 5 4 3 2 1 3 0 3 4 4 5 4 1 3
27 26 28 29 29 29 28 27 28 27 28 29 27 24 23 23 24 24 22 22 22 22 21 20 19 19 19 20 19 17 17 18 17 17 16 14 14 15 14 15 15 14 13 13 12 12 11 10 10 10 10 10 10 9 8 8 8 8 8 8 8 8 7 7 8 11 10 7 6 6 4 5 4 3 1 1 2 1 3 4 4 5 5 2 1
30 27 28 30 31 31 28 28 31 29 27 28 27 25 24 23 24 24 23 22 22 23 22 20 20 19 19 19 18 16 17 18 16 15 15 14 14 13 12 13 15 14 13 13 12 12 11 10 9 10 9 9 10 10 9 9 8 7 7 7 7 7 7 7 7 8 8 4 6 7 5 5 5 2 0 1 2 4 4 5 6 6 6 6 5
31 30 30 31 32 31 29 29 31 29 27 28 27 25 24 24 24 24 23 22 23 23 23 21 21 20 19 19 18 16 15 17 17 15 14 14 13 12 12 11 12 13 12 12 13 12 10 10 10 10 10 9 10 10 9 10 9 8 8 7 7 7 6 6 6 7 7 4 6 8 5 5 6 2 1 2 0 4 6 7 7 6 7 8 8
31 32 32 31 31 30 30 31 30 29 27 27 28 25 23 24 25 24 23 22 22 23 23 22 21 20 19 19 18 17 16 17 17 15 15 15 13 13 13 11 11 11 12 12 12 10 9 10 11 10 10 9 9 10 9 9 9 8 9 8 7 7 6 6 6 7 7 6 6 6 5 6 7 4 3 2 2 3 6 7 6 4 5 6 7
31 33 34 32 31 31 32 32 31 30 28 27 27 25 23 24 25 25 23 22 22 22 23 22 21 20 20 19 19 18 17 17 17 16 15 15 14 13 13 12 11 11 12 12 11 9 9 10 10 10 11 10 9 10 10 10 10 9 8 7 7 8 7 6 6 6 7 8 6 3 2 4 5 4 4 4 4 5 6 7 6 5 5 6 9
31 32 33 34 33 32 33 33 33 31 29 28 28 26 24 22 23 25 24 23 23 23 22 22 22 21 20 20 19 19 18 17 17 15 15 16 15 14 14 13 12 12 13 14 14 13 12 10 10 10 10 10 9 10 10 10 10 9 9 9 8 8 7 7 7 6 7 8 8 6 5 5 5 5 4 3 3 4 4 5 7 6 5 7 10
33 33 33 36 35 32 33 33 32 30 29 28 28 27 26 23 22 23 24 23 22 23 23 22 21 21 20 20 19 19 18 17 17 16 15 16 16 15 15 16 15 13 12 14 15 16 16 13 11 11 10 9 10 10 10 10 10 10 10 10 9 7 6 6 6 7 6 7 7 8 9 9 9 8 7 6 5 4 4 4 4 4 5 7 9
33 35 33 37 37 33 32 32 30 29 29 29 27 27 27 25 23 23 24 24 23 22 23 22 22 21 20 20 19 18 18 18 17 16 17 17 16 15 15 15 14 13 13 13 13 14 15 14 12 13 11 10 10 10 10 10 10 11 10 10 9 8 8 7 7 8 8 7 7 9 9 9 10 10 10 10 9 7 5 4 4 5 5 6 7
32 37 34 36 38 34 32 33 31 29 29 30 28 28 28 25 23 23 24 25 24 23 23 22 22 21 19 19 19 18 18 17 15 16 17 16 15 14 14 13 12 13 14 15 14 12 12 13 13 14 12 9 9 10 10 10 10 11 11 10 10 9 7 7 8 9 10 9 8 9 8 7 8 9 8 8 10 9 6 5 7 8 8 8 8
28 36 35 36 39 36 32 32 32 31 30 30 29 28 27 25 24 24 25 26 26 25 24 23 22 21 20 19 19 18 19 18 16 16 17 16 14 14 15 14 12 13 14 15 15 12 11 11 12 13 12 9 8 8 9 9 9 11 11 10 10 9 7 6 7 7 8 9 9 9 9 8 7 6 3 3 5 7 6 6 6 5 6 7 8
26 33 34 35 38 37 34 32 32 33 31 30 30 28 26 25 24 24 25 25 26 25 24 23 22 21 20 19 19 19 20 21 19 18 17 15 13 14 16 15 13 12 13 12 12 12 11 11 11 11 11 11 10 10 10 10 10 10 10 10 10 10 8 8 8 7 7 8 9 9 10 8 6 4 2 3 4 5 7 8 6 4 6 8 9
25 28 30 33 37 36 34 31 31 34 33 30 29 29 27 26 25 24 25 24 24 25 24 23 23 22 21 19 19 19 20 22 20 18 18 17 15 15 17 16 14 13 12 11 11 12 12 12 12 13 13 13 14 14 12 12 12 10 9 9 10 10 9 8 7 7 7 7 7 7 7 6 5 5 5 6 6 7 8 8 8 7 9 10 10
26 25 24 29 35 34 32 30 30 33 33 31 30 29 28 29 27 25 25 24 24 25 25 23 23 23 23 21 20 19 20 21 21 18 17 18 18 17 18 18 18 16 13 12 12 12 13 13 13 15 16 16 16 15 13 12 12 11 9 8 9 10 10 10 8 6 6 6 6 6 6 6 6 6 7 8 7 7 7 7 8 8 8 8 9
19 23 20 23 31 33 30 29 29 30 31 30 30 30 29 29 30 28 25 24 24 25 24 22 21 22 23 23 21 20 19 19 19 18 16 17 17 17 17 18 19 18 16 15 14 14 16 16 14 14 15 15 14 14 12 11 11 11 11 9 9 10 10 10 10 8 8 6 5 5 6 6 6 6 6 7 6 6 7 8 8 7 7 8 9
10 14 17 22 28 31 31 29 26 26 30 30 29 29 30 30 31 31 28 25 25 26 25 23 22 21 21 21 20 20 19 18 18 17 16 17 17 16 15 16 17 18 18 17 15 14 16 16 13 13 13 13 13 13 12 12 12 12 11 10 10 10 9 10 10 8 7 7 7 7 7 7 9 10 8 6 6 7 8 9 7 6 6 7 7
17 12 13 19 24 26 28 29 27 23 26 31 29 27 29 30 31 31 29 26 26 26 25 25 23 21 20 19 18 17 17 17 17 16 17 17 17 16 15 14 16 16 17 18 17 15 14 14 14 12 12 12 12 12 12 12 12 12 12 12 11 10 10 10 10 8 7 8 8 8 8 9 10 10 8 7 7 7 8 8 7 7 8 9 10
25 17 12 14 18 21 22 22 23 24 24 28 30 27 25 27 30 31 29 27 27 27 26 26 25 23 20 19 19 18 17 17 16 16 17 17 16 15 14 14 14 13 12 15 19 18 16 15 14 12 12 13 13 12 13 12 11 11 12 12 11 11 11 11 10 9 9 9 8 7 7 8 9 7 6 7 8 8 7 8 8 9 11 12 13
25 21 16 14 14 18 21 16 13 18 23 25 26 24 21 22 28 31 29 28 28 27 25 25 25 23 21 21 21 21 20 19 19 18 17 18 18 16 14 14 14 12 10 13 16 18 18 16 14 12 13 14 14 14 14 13 12 12 12 11 10 10 10 10 10 9 9 8 8 7 6 7 7 7 5 6 7 9 9 8 9 12 13 12 12
21 21 20 18 14 15 22 20 11 11 19 24 23 19 17 22 28 31 30 29 28 26 25 26 26 25 23 23 23 24 24 23 23 21 18 18 19 17 14 15 16 14 11 11 13 14 14 14 13 13 13 14 15 15 14 13 13 12 12 11 10 9 8 8 8 7 6 5 5 5 6 7 8 8 8 8 9 9 8 8 10 11 11 10 10
16 18 19 21 21 19 22 26 20 14 16 22 25 23 20 21 25 27 29 29 28 26 25 26 27 26 26 25 24 25 26 25 25 24 20 19 21 20 15 14 17 17 14 13 14 15 15 15 15 15 16 17 17 16 14 13 14 13 12 10 10 10 8 5 5 5 4 4 5 6 8 9 9 9 9 9 9 9 9 9 10 11 11 10 10
10 13 15 18 21 21 19 23 25 21 17 18 22 25 24 22 21 22 24 28 30 28 25 24 25 25 26 27 25 24 24 26 27 27 23 20 22 24 21 16 16 19 19 19 19 19 19 19 18 18 19 18 18 17 14 13 14 14 13 10 10 11 9 7 7 7 8 8 8 9 10 10 10 9 9 9 9 10 10 10 11 11 12 10 9
9 9 12 16 17 17 17 20 21 20 18 17 18 21 25 25 25 22 19 20 24 25 26 27 26 26 27 28 28 26 24 25 27 28 28 25 24 25 26 22 19 19 22 23 22 21 21 21 19 18 17 16 16 16 15 13 14 14 13 11 11 11 12 12 11 11 11 12 12 12 12 12 12 11 10 10 11 11 11 11 11 12 12 12 11
6 4 4 9 12 15 17 18 17 14 15 18 18 19 22 24 26 24 21 18 20 21 24 26 26 28 30 30 31 30 27 26 27 27 28 29 28 27 27 27 25 22 22 23 23 23 23 23 22 20 17 16 16 16 16 15 15 14 14 13 12 12 13 14 14 12 12 13 13 13 13 14 14 13 13 13 13 12 12 13 13 13 13 13 14
2 5 5 2 2 8 14 15 14 12 12 15 18 19 20 21 21 21 19 19 20 20 22 22 23 26 30 31 32 31 29 28 29 28 28 28 30 30 28 28 27 26 25 24 23 24 24 24 24 23 21 20 19 18 18 17 16 15 15 15 15 15 16 16 16 15 15 15 14 15 14 15 15 15 15 14 13 12 13 14 15 14 14 13 15
6 6 7 7 6 3 4 8 10 9 8 8 9 13 16 17 18 18 17 17 19 20 21 22 23 25 26 27 29 30 30 30 31 32 30 29 29 30 29 28 27 26 27 26 25 25 26 25 24 23 23 22 21 21 20 19 18 17 17 17 17 18 18 18 17 17 17 18 17 17 16 16 16 16 15 14 13 13 14 15 15 15 14 15 16
11 13 14 13 11 7 6 8 9 8 8 4 3 6 10 12 14 16 17 17 18 20 22 23 23 24 26 27 27 27 29 32 32 33 33 31 30 31 30 29 27 26 26 28 28 28 27 26 25 24 23 23 22 22 21 20 19 18 18 19 20 20 19 18 17 17 17 18 17 17 17 17 16 16 16 16 16 16 16 17 17 16 16 16 17
12 12 15 16 15 11 10 12 13 13 12 7 3 2 4 8 10 11 13 14 13 14 17 21 22 23 24 26 26 25 28 31 31 31 31 31 30 31 30 28 27 27 29 31 31 29 28 27 26 26 25 24 23 23 22 21 20 19 19 20 21 21 20 19 18 18 18 17 17 17 17 17 17 17 17 17 17 17 17 17 17 17 16 14 13
15 14 14 14 12 10 10 12 12 10 7 5 3 3 3 4 5 6 7 8 6 5 6 10 16 20 21 21 21 23 26 28 28 28 29 28 27 27 27 26 26 27 30 32 31 29 27 27 26 26 26 25 25 25 24 23 21 21 21 20 20 20 20 19 19 19 18 18 18 18 18 18 17 15 14 14 14 14 14 13 13 12 11 9 8
17 17 18 17 14 10 10 11 9 6 5 3 2 2 5 6 4 4 4 2 2 2 1 2 8 15 19 18 18 20 24 26 27 28 27 26 25 24 24 24 25 25 27 29 28 27 26 25 24 24 24 24 24 24 23 24 24 23 22 21 19 18 18 18 18 18 19 19 18 17 17 15 13 11 11 10 11 11 10 8 7 6 5 4 4
16 17 19 20 18 14 11 9 5 3 4 3 1 4 5 5 4 5 5 3 1 1 2 4 7 10 14 15 16 18 21 22 24 26 27 26 25 24 22 22 23 24 26 28 28 26 25 24 22 21 21 22 23 22 21 22 23 23 23 22 19 18 18 17 17 17 17 17 15 13 12 10 9 8 7 7 7 6 5 4 3 2 1 1 2
19 20 20 18 16 13 11 10 7 5 5 5 5 7 8 8 7 7 6 5 4 3 4 7 10 11 10 10 12 14 16 18 20 23 25 24 22 21 20 19 20 22 24 25 26 25 24 24 22 21 21 21 20 19 19 19 19 20 21 20 19 18 18 17 16 15 15 15 13 11 8 6 4 4 3 2 1 0 0 1 1 1 0 1 2
18 18 16 14 13 12 12 12 10 10 10 9 9 11 12 12 11 9 8 8 7 6 7 10 14 16 15 13 11 10 12 13 13 13 14 14 14 15 16 16 16 17 18 19 20 20 20 20 19 17 18 16 14 14 16 16 15 15 16 16 16 17 17 15 13 12 12 11 11 9 5 2 1 1 0 1 2 2 2 1 2 2 1 1 3
14 14 12 11 12 12 13 13 12 12 12 11 10 11 12 13 13 12 12 12 11 10 9 11 12 13 16 18 18 17 16 13 10 10 12 13 13 14 14 14 14 14 14 15 15 15 15 15 13 12 13 12 10 10 12 13 12 13 14 14 15 16 16 13 10 9 8 7 6 5 3 2 1 1 1 1 2 3 4 2 0 1 1 3 5
9 10 11 11 13 13 13 13 13 13 14 14 12 12 13 13 13 14 14 13 12 11 11 11 12 14 16 19 21 21 20 18 16 16 18 18 17 17 17 16 14 13 12 13 13 12 11 11 11 11 11 10 9 8 8 8 8 9 10 11 12 12 10 9 8 7 6 5 4 3 3 3 3 3 3 4 5 6 6 4 2 1 2 5 6
4 4 3 6 10 12 13 13 12 13 15 15 12 10 11 12 13 14 14 12 10 10 11 12 13 14 13 13 15 17 17 17 16 16 17 18 17 17 17 17 17 15 13 12 12 11 10 10 10 10 9 9 8 7 7 7 6 6 6 7 7 5 5 6 6 6 5 4 4 4 6 7 7 8 8 8 9 8 8 5 1 1 3 5 7
5 4 4 5 7 9 13 14 12 12 14 14 12 12 13 12 13 14 14 11 10 9 9 9 11 10 7 7 10 12 12 13 14 14 15 16 15 13 13 14 14 14 13 12 12 11 11 10 9 8 8 8 8 7 6 6 6 6 6 6 6 5 5 6 6 6 6 6 6 9 11 11 10 10 11 12 11 8 7 5 3 2 2 4 5
8 7 7 6 5 7 12 14 13 12 12 12 12 13 14 13 14 15 14 13 12 11 10 11 11 9 6 7 8 8 7 7 7 8 11 13 13 12 11 11 11 11 9 8 7 7 8 9 8 7 7 7 7 7 6 5 5 5 5 4 4 4 4 5 5 6 8 9 10 12 12 11 11 11 11 11 10 8 7 6 5 5 6 6 6
11 10 9 8 6 7 11 14 13 11 11 12 12 12 13 12 12 14 16 15 13 11 12 13 12 9 7 8 8 5 4 4 4 3 6 9 10 10 11 11 11 10 9 6 5 5 6 6 5 4 5 5 4 5 5 3 2 2 2 2 3 3 4 5 7 9 11 13 12 12 11 11 11 11 10 8 7 6 6 6 6 7 8 9 8
12 11 10 9 7 7 9 13 12 10 11 12 11 12 12 12 11 13 15 16 14 12 12 11 8 6 5 6 6 5 4 5 6 4 2 4 5 6 10 12 10 10 10 8 7 8 9 9 6 5 5 5 4 3 2 2 2 2 1 0 2 4 6 8 10 12 13 13 11 10 10 9 9 9 8 7 5 4 4 5 6 7 8 9 9
Wind_Direction
161 160 159 154 155 156 151 155 156 157 167 170 169 167 163 165 170 173 170 166 164 164 162 155 154 162 157 153 158 157 159 161 158 155 149 148 149 149 155 156 150 147 154 160 155 149 147 146 148 150 152 152 149 145 141 140 142 144 145 144 137 134 131 125 129 114 119 144 148 168 177 161 162 170 177 171 133 123 118 96 80 49 54 62 46
162 161 159 156 157 157 156 160 160 164 171 172 173 172 168 170 173 174 170 166 166 165 162 160 159 163 160 155 155 158 165 164 162 169 162 153 154 153 156 164 164 158 156 154 151 154 155 153 153 152 147 142 144 144 138 140 147 146 144 142 127 122 121 125 134 128 133 144 128 146 164 160 163 178 193 191 167 146 138 117 94 31 61 69 69
164 160 158 160 159 159 161 163 165 168 171 176 178 175 174 173 173 174 170 169 168 163 163 163 162 160 159 158 157 158 165 166 167 172 164 153 156 156 156 164 171 169 162 157 158 165 166 163 159 153 148 142 142 144 142 145 149 145 141 134 123 120 116 120 135 142 148 158 153 145 154 165 175 187 190 193 186 160 145 140 104 49 72 86 110
166 161 159 161 161 164 166 165 166 167 169 178 179 176 178 176 174 172 168 169 166 163 166 163 158 158 157 159 156 154 160 169 171 171 168 162 159 159 158 161 167 166 166 168 164 163 164 165 164 158 153 150 150 150 151 153 151 148 144 130 122 123 118 114 114 129 157 170 182 188 182 187 202 204 195 201 201 182 171 159 91 54 68 89 104
168 166 164 163 163 170 171 170 170 168 171 181 180 176 175 173 174 169 165 167 162 164 168 160 155 156 157 159 157 156 163 169 170 169 171 169 162 161 161 160 164 162 163 166 161 160 160 161 163 158 152 152 152 152 156 160 155 153 147 129 126 126 120 120 109 115 153 162 173 199 199 198 219 211 190 191 203 201 195 181 126 66 65 80 98
171 170 168 166 166 173 177 177 175 171 176 183 182 177 170 170 173 168 167 170 167 170 170 161 160 163 164 167 165 168 171 170 173 174 169 166 163 164 163 162 167 164 160 159 157 159 157 156 158 155 152 153 153 154 156 158 155 153 145 129 130 130 122 126 121 124 147 139 108 126 133 109 83 174 160 145 162 193 193 183 185 155 72 74 95
173 173 171 169 170 173 177 181 176 174 180 180 178 181 173 170 173 170 173 176 173 176 173 167 168 169 169 173 172 174 176 175 181 181 171 165 165 165 164 164 170 166 157 157 156 155 153 153 155 152 153 157 158 156 153 153 153 153 146 136 134 133 125 124 127 133 142 127 109 128 121 87 80 107 135 133 127 156 180 189 200 193 100 45 76
175 174 172 171 172 174 177 181 175 175 181 176 178 188 180 174 175 174 176 177 178 180 177 173 173 173 173 176 176 176 180 181 182 183 180 174 166 164 169 169 172 170 158 157 159 153 151 151 152 154 157 163 164 158 151 148 153 158 154 145 141 140 131 123 128 138 136 129 134 148 140 108 95 101 115 132 124 125 162 183 185 159 354 324 124
179 177 174 173 175 176 178 180 176 179 181 175 183 194 186 179 177 177 179 178 180 181 178 178 178 176 175 177 177 177 182 185 181 179 181 181 170 167 176 175 172 173 161 160 163 155 152 151 152 155 156 160 164 159 150 142 144 156 157 152 148 145 139 132 134 143 137 134 139 135 128 121 112 112 113 127 130 100 122 157 166 153 252 223 201
183 180 176 175 176 176 178 179 179 185 182 177 189 197 189 184 179 179 182 180 180 181 179 180 180 179 178 178 180 178 180 185 183 177 177 184 182 176 180 178 173 174 164 161 165 157 155 154 153 157 155 158 164 157 148 140 141 150 153 154 155 152 148 144 145 150 143 135 129 113 109 122 115 103 109 143 144 101 114 147 164 152 171 194 201
184 183 178 177 177 178 179 179 181 186 181 179 192 199 190 185 182 182 184 181 181 181 180 182 180 183 183 177 178 180 181 186 185 180 180 185 184 179 179 178 176 176 169 162 164 161 159 156 154 156 155 157 161 154 147 145 145 148 151 154 159 160 156 154 157 154 144 136 128 117 110 108 85 64 81 202 228 105 128 167 192 191 167 176 195
187 185 180 177 177 179 181 182 183 184 182 183 192 199 192 186 184 185 186 183 182 182 182 183 181 184 184 176 177 182 183 188 187 183 184 183 178 175 175 176 177 178 175 169 168 167 164 163 161 157 155 154 152 151 153 152 145 144 149 154 159 164 162 160 166 155 143 139 134 123 123 119 88 60 74 256 268 292 152 177 204 228 240 238 219
189 187 182 178 178 180 182 184 186 186 185 188 193 196 193 190 189 188 187 184 184 185 185 184 183 185 183 177 180 184 183 187 189 185 186 184 178 177 176 176 177 178 177 174 174 172 167 167 165 159 157 155 154 155 159 158 149 145 152 155 158 166 168 163 166 160 149 150 154 139 138 151 136 118 124 285 268 197 186 199 217 227 225 232 260
187 189 186 184 181 181 182 185 188 189 189 192 196 197 195 194 193 190 188 186 187 188 187 186 186 185 184 182 183 186 183 184 186 185 187 188 184 183 181 178 178 178 177 177 180 174 170 170 166 164 162 159 162 166 169 168 160 157 160 160 162 167 172 168 163 163 158 157 168 159 143 156 159 142 106 154 210 221 229 233 237 238 236 240 242
186 191 191 187 183 181 182 184 188 191 191 193 196 199 198 195 195 191 189 188 188 189 189 189 189 187 187 187 186 187 181 180 184 184 185 189 186 184 185 183 179 177 173 177 179 173 174 179 174 174 170 166 170 172 176 178 171 168 166 166 170 166 171 179 170 166 166 155 170 177 172 170 181 205 78 92 154 246 247 243 244 254 253 250 248
188 190 190 186 183 183 184 185 187 189 190 191 194 200 200 196 196 193 190 190 189 190 191 190 191 189 188 189 188 188 182 180 184 184 185 189 188 184 187 185 181 180 173 172 176 176 186 190 184 185 180 174 176 176 181 182 178 180 177 174 177 170 167 178 178 182 183 160 152 176 198 198 200 209 203 204 251 253 252 249 250 269 275 276 275
189 188 187 186 185 187 188 186 185 185 188 192 196 203 205 200 197 194 191 191 189 189 192 191 191 189 189 190 189 188 186 184 186 187 185 187 187 186 187 184 185 188 179 175 182 189 198 197 192 193 186 182 185 181 184 188 186 188 184 183 187 178 174 178 177 182 181 164 155 169 200 201 196 186 190 226 252 254 261 258 252 265 291 306 304
190 188 185 185 186 188 189 188 188 187 189 196 200 205 208 205 200 195 192 193 191 190 191 191 191 190 188 189 190 189 188 187 189 189 184 186 188 187 187 187 191 195 189 187 190 194 203 205 197 194 186 184 190 188 187 189 187 188 185 187 196 191 184 184 183 184 178 171 174 184 200 206 194 177 175 207 248 263 278 260 238 246 285 303 303
189 187 183 183 185 188 187 186 189 190 192 197 201 202 205 208 206 200 196 195 193 190 191 192 192 191 189 190 192 190 190 191 191 188 184 187 190 188 188 190 193 197 197 198 195 196 206 209 198 196 196 193 192 190 192 189 185 193 191 186 198 206 199 195 199 199 186 179 187 198 211 218 217 216 208 200 204 229 278 286 249 243 275 290 296
188 185 184 184 185 188 189 187 187 189 193 198 200 201 203 207 210 207 200 198 195 193 193 193 193 192 190 191 193 192 191 193 191 188 187 188 190 188 189 192 195 193 192 199 205 205 208 207 198 199 206 209 200 192 195 192 187 199 199 189 197 208 206 208 214 209 196 194 211 226 231 227 225 229 225 217 217 218 232 275 290 283 287 295 305
187 184 186 187 186 187 190 191 190 190 195 199 199 200 201 204 209 209 204 200 198 195 195 196 194 194 194 194 194 193 191 189 188 189 191 193 193 189 187 193 199 195 191 199 211 213 208 202 198 204 210 208 202 199 200 197 192 200 207 201 204 213 215 218 221 217 213 212 217 231 245 243 238 241 236 229 229 219 219 270 289 283 283 289 296
186 185 187 188 188 187 188 192 192 192 196 196 195 195 198 202 206 207 206 203 200 198 198 198 195 195 198 197 196 195 190 187 189 192 193 195 195 187 184 192 200 202 203 206 211 212 205 197 195 205 209 203 210 217 209 204 200 200 209 213 213 220 230 234 232 228 227 225 224 235 251 257 253 249 247 251 229 207 217 273 298 292 276 275 280
188 185 188 187 187 188 188 192 191 191 195 195 193 194 198 203 204 204 204 203 202 200 201 201 198 196 199 199 198 197 192 188 192 195 193 194 195 187 185 193 201 209 212 210 209 208 204 200 195 196 200 203 223 232 217 215 219 210 210 216 216 221 230 234 234 238 239 236 236 243 254 261 255 233 260 309 276 227 232 253 272 282 267 265 273
197 187 187 188 188 188 189 194 195 192 193 193 194 197 199 203 206 204 203 203 201 200 202 205 201 196 198 200 201 201 196 192 193 194 191 191 198 197 191 192 199 211 217 212 207 204 204 207 199 194 198 205 220 231 225 220 226 224 218 216 215 223 234 238 235 234 236 237 239 243 254 266 264 243 247 262 261 262 261 250 251 264 264 263 269
203 192 190 190 190 190 191 197 199 195 193 194 197 199 199 202 207 205 202 202 200 199 204 208 205 199 197 201 203 201 200 197 194 195 195 195 200 204 199 193 194 201 208 211 211 207 208 214 208 202 207 210 216 226 227 222 225 228 228 225 222 227 237 244 248 246 243 246 249 256 262 267 272 262 243 239 245 261 266 259 261 267 264 267 275
204 196 203 200 192 192 194 198 200 197 197 198 200 202 203 205 209 208 204 202 199 201 206 209 209 205 202 204 204 200 200 201 196 196 201 203 206 211 208 199 197 198 200 208 214 210 208 215 219 214 215 216 215 222 225 224 225 228 230 229 228 231 234 237 242 245 246 246 250 265 271 268 275 283 267 252 252 255 260 268 276 274 265 269 278
210 200 214 210 195 191 193 197 202 203 202 201 201 206 208 208 210 209 205 201 197 201 207 209 211 212 207 205 205 201 199 202 201 197 201 207 210 215 214 204 200 203 205 209 213 209 208 217 225 226 224 220 218 222 225 223 221 225 230 230 230 234 236 236 242 246 244 244 243 253 264 264 263 269 272 265 257 256 262 272 283 286 279 277 283
203 202 213 211 199 194 194 198 206 210 205 200 200 208 212 212 211 208 204 200 197 200 207 210 212 214 211 205 205 205 201 202 206 202 202 211 216 218 221 214 210 214 215 212 211 212 216 221 225 228 229 227 222 221 223 223 220 222 228 232 233 235 237 242 248 251 249 250 249 250 258 262 260 261 265 264 263 266 268 272 286 299 299 297 297
204 208 207 203 202 201 197 201 213 218 210 200 200 210 216 213 211 207 202 198 197 200 207 211 211 214 214 208 203 205 205 203 210 211 207 213 221 224 227 225 223 228 226 215 212 214 220 223 224 226 229 232 230 224 223 225 222 221 227 234 238 238 241 246 249 252 254 253 252 257 266 270 269 265 265 267 274 283 280 274 284 297 302 301 297
207 216 214 206 207 206 201 203 216 218 210 201 200 211 219 213 206 202 198 196 197 201 208 212 213 214 215 211 205 205 206 204 209 216 214 214 221 227 229 229 230 230 228 223 216 214 218 224 229 233 231 231 232 229 227 227 225 225 229 235 241 243 245 250 253 258 263 259 253 257 273 283 278 267 263 270 282 289 288 280 279 285 292 294 292
206 217 220 216 214 211 209 210 212 205 205 203 198 198 200 195 194 195 195 196 198 199 201 203 205 207 211 212 210 209 208 205 207 213 214 212 218 226 226 224 228 228 227 230 221 213 217 226 234 239 235 231 233 233 230 228 228 228 225 228 238 244 246 254 258 261 269 271 262 258 268 277 276 268 263 259 258 262 266 268 268 274 281 284 286
217 218 222 219 213 212 214 215 216 214 210 208 204 200 192 183 184 191 193 193 193 192 190 191 195 201 209 214 216 215 212 210 210 212 211 207 214 224 223 213 218 221 219 220 220 216 220 226 227 229 229 230 236 238 235 233 232 228 223 226 238 245 248 254 257 260 267 271 268 262 260 264 267 272 270 260 250 250 258 264 266 272 276 277 282
250 230 226 219 207 201 198 200 206 212 210 206 206 207 205 195 189 191 189 187 189 193 196 197 200 207 215 220 223 221 217 215 214 215 214 209 211 221 225 214 206 209 209 212 216 216 217 218 216 219 227 232 237 240 241 241 236 229 226 228 235 242 246 246 248 255 257 260 267 268 268 272 276 278 273 263 260 264 267 269 273 278 280 276 278
262 255 245 233 213 196 184 179 187 198 202 199 196 200 204 204 204 208 204 189 186 195 205 207 209 217 224 228 229 227 222 219 219 219 218 217 216 220 225 222 212 204 204 209 212 211 212 215 217 220 227 232 237 240 243 243 238 233 232 232 233 236 240 245 250 253 251 252 255 259 266 276 280 279 276 272 271 271 269 269 275 281 282 277 275
227 213 226 236 230 221 209 187 172 175 192 198 197 200 205 207 212 222 227 216 202 204 212 212 213 220 226 229 230 229 225 223 223 221 219 220 220 221 224 226 223 216 211 211 214 215 217 221 226 230 231 230 233 240 244 244 241 238 238 238 236 233 235 244 252 254 252 251 253 257 265 273 277 280 283 280 274 270 269 271 275 277 277 275 276
217 170 142 121 280 255 237 209 178 165 178 193 201 206 208 209 213 218 224 222 214 212 216 216 216 221 225 227 229 229 227 225 224 223 222 223 223 222 223 226 227 228 228 224 222 224 227 230 234 236 235 233 235 239 243 243 242 241 240 239 238 237 238 245 251 252 250 250 253 256 261 268 273 278 282 280 272 269 270 271 271 272 274 273 273
61 95 96 78 57 26 242 208 188 171 160 171 196 208 210 212 216 218 217 216 214 212 216 218 218 219 221 225 227 228 228 227 225 225 227 227 225 225 226 226 228 230 234 234 232 232 234 237 237 237 236 236 239 241 241 241 239 239 241 242 241 242 244 247 251 252 250 250 254 258 261 266 270 273 275 275 273 274 276 274 273 274 275 274 273
79 88 88 87 81 78 121 159 161 143 129 132 194 218 218 216 220 222 219 217 217 216 217 220 220 218 220 224 226 227 228 227 226 229 231 229 226 227 228 228 229 232 235 237 236 234 235 237 238 238 237 237 239 241 242 241 239 239 241 244 246 247 247 249 251 249 247 250 255 260 264 267 268 269 270 270 272 277 280 279 279 279 280 280 280
78 88 89 89 89 90 111 128 123 114 114 117 116 150 199 206 213 223 225 226 224 217 216 219 219 219 222 224 223 222 224 225 225 228 230 227 225 226 227 228 231 232 233 236 236 235 235 236 237 239 239 239 240 242 242 241 242 244 245 246 247 248 248 249 250 247 245 249 254 259 264 267 267 268 269 271 276 281 284 286 288 288 286 284 284
70 73 75 79 87 93 101 103 99 101 110 112 99 81 96 145 184 208 217 225 227 212 215 217 213 212 214 213 211 211 215 220 224 227 230 228 225 224 224 225 227 226 228 231 234 234 234 233 232 234 237 239 239 240 240 240 242 245 245 244 245 247 247 246 246 246 247 249 252 256 260 263 265 268 273 279 285 291 294 297 299 295 289 284 286
73 74 75 74 72 76 90 93 82 67 64 78 128 129 102 104 124 149 158 191 246 235 182 155 189 206 210 208 208 209 212 217 223 227 229 227 225 225 224 220 219 219 223 227 230 232 233 231 230 232 235 236 236 236 237 239 240 241 239 238 239 241 242 242 242 245 249 252 254 256 258 261 265 272 280 289 297 302 305 306 304 300 292 288 296
91 96 96 91 83 80 89 98 92 56 38 38 174 170 150 134 115 105 106 104 134 181 139 135 163 195 207 209 212 214 216 220 222 225 228 226 224 227 226 220 218 219 222 226 228 229 231 232 232 234 236 238 237 234 231 231 232 233 234 236 237 236 236 235 235 239 244 248 252 255 256 260 268 279 291 303 309 307 303 294 286 282 278 300 308
111 114 114 110 102 95 94 101 115 119 92 78 97 121 133 134 118 102 99 103 115 124 133 144 147 151 165 189 206 213 213 213 215 220 224 221 217 216 217 217 218 218 220 223 224 223 226 229 233 233 233 233 231 227 224 221 221 223 227 230 232 231 228 227 228 232 237 240 244 246 249 258 272 288 301 318 340 9 251 278 267 240 144 3 311
118 124 127 125 117 109 105 106 114 115 104 94 93 98 100 98 95 93 94 93 95 108 125 133 133 134 137 146 161 176 185 193 200 204 201 194 190 193 195 197 201 205 211 215 216 214 214 217 219 218 218 218 213 209 211 208 202 206 214 220 225 225 221 220 221 223 226 231 234 233 227 219 223 249 283 82 97 115 127 167 260 263 246 263 274
116 121 124 123 118 114 114 116 116 113 108 100 94 95 94 89 87 89 91 90 89 97 108 108 108 116 122 122 122 127 134 139 136 126 124 133 145 155 161 165 171 179 190 195 196 197 197 200 201 197 197 198 190 189 198 194 184 186 194 202 213 215 208 199 197 199 203 207 209 205 185 162 166 166 108 86 97 123 127 123 267 291 272 266 280
120 118 113 111 112 113 118 122 120 119 116 106 95 93 93 94 96 97 94 90 86 88 92 91 93 105 115 119 118 119 123 126 124 118 117 122 128 133 137 140 143 149 160 169 171 172 176 180 181 176 172 171 165 165 175 178 181 189 190 196 213 216 197 177 173 177 186 192 189 169 147 144 137 120 101 88 90 101 100 86 46 338 307 296 303
168 164 145 130 127 124 120 117 118 125 125 118 112 109 107 106 109 109 104 97 86 78 76 82 93 101 107 114 117 119 124 129 128 124 122 123 126 130 131 130 129 130 137 144 147 149 153 159 167 168 160 151 148 151 153 150 156 170 171 178 197 201 175 167 170 171 180 192 181 152 143 139 133 124 115 107 107 109 106 100 90 316 317 312 319
195 198 197 181 160 142 130 124 126 136 140 139 139 137 133 131 129 125 119 113 105 97 92 94 94 88 85 100 110 115 122 128 130 131 129 128 129 132 134 133 131 129 132 139 143 142 144 153 166 172 163 150 146 150 155 152 150 154 156 163 173 176 176 179 178 175 176 172 160 153 149 145 144 143 137 132 135 141 139 140 163 227 280 295 304
175 176 183 189 179 158 149 145 145 149 154 158 157 149 144 142 140 138 137 132 120 112 115 119 113 105 113 123 113 103 104 108 120 139 146 142 142 144 145 145 144 139 136 142 150 149 147 155 164 165 159 153 143 137 139 143 148 157 167 180 188 189 188 186 180 168 161 155 154 158 159 155 153 156 155 150 150 158 166 172 194 236 263 277 288
179 183 195 202 195 178 169 164 160 160 168 174 172 166 165 164 159 154 153 150 141 125 118 124 128 129 138 140 129 114 92 65 62 108 154 155 153 159 164 162 160 161 160 160 170 174 167 169 178 168 154 156 153 139 128 116 111 134 157 182 190 180 172 168 162 156 153 154 157 163 168 169 167 169 176 179 176 176 184 197 218 243 263 280 297
198 199 207 213 214 207 188 179 175 170 174 181 180 175 174 175 175 172 164 158 156 148 136 135 135 123 115 127 131 121 95 67 50 47 128 158 141 152 171 175 174 173 172 168 168 168 166 175 197 211 202 200 211 217 233 307 335 353 5 228 183 172 167 163 160 160 161 163 165 168 172 175 177 179 185 196 205 207 205 211 229 249 268 288 304